This is the latest recevied weather packets stored in our database for station/object WA0LM. If no packets are shown the sender has not sent any weather packets the latest 10 day(s).
| Time | Temp. | Humidity | Pressure | Rain* | Wind** | Luminosity | Snow |
|---|---|---|---|---|---|---|---|
| 1777691531 | 6.11° C | 57% | 1017.4 hPa | 0 mm | - | 0 W/m² | - |
| 1777691230 | 6.67° C | 53% | 1017.1 hPa | 0 mm | - | 0 W/m² | - |
| 1777690928 | 6.67° C | 49% | 1017.3 hPa | 0 mm | - | 0 W/m² | - |
| 1777690642 | 6.67° C | 50% | 1016.9 hPa | 0 mm | - | 0 W/m² | - |
| 1777690322 | 6.67° C | 47% | 1017.1 hPa | 0 mm | - | 0 W/m² | - |
| 1777690020 | 7.22° C | 48% | 1017.1 hPa | 0 mm | - | 0 W/m² | - |
| 1777689718 | 7.22° C | 48% | 1017.1 hPa | 0 mm | - | 0 W/m² | - |
| 1777689416 | 7.78° C | 47% | 1017.1 hPa | 0 mm | - | 0 W/m² | - |
| 1777689113 | 7.78° C | 47% | 1017.1 hPa | 0 mm | - | 0 W/m² | - |
| 1777688809 | 7.78° C | 46% | 1017 hPa | 0 mm | - | 0 W/m² | - |
| 1777688506 | 8.33° C | 46% | 1016.9 hPa | 0 mm | - | 0 W/m² | - |
| 1777688204 | 8.33° C | 45% | 1016.8 hPa | 0 mm | - | 0 W/m² | - |
| 1777687901 | 8.89° C | 45% | 1017 hPa | 0 mm | - | 0 W/m² | - |
| 1777687598 | 8.89° C | 43% | 1016.8 hPa | 0 mm | - | 0 W/m² | - |
| 1777687295 | 8.89° C | 43% | 1016.8 hPa | 0 mm | - | 0 W/m² | - |
| 1777686993 | 9.44° C | 41% | 1016.6 hPa | 0 mm | - | 0 W/m² | - |
| 1777686689 | 9.44° C | 40% | 1016.7 hPa | 0 mm | - | 0 W/m² | - |
| 1777686387 | 10° C | 41% | 1016.7 hPa | 0 mm | - | 0 W/m² | - |
| 1777686083 | 10° C | 39% | 1016.7 hPa | 0 mm | - | 0 W/m² | - |
| 1777685780 | 10° C | 39% | 1016.7 hPa | 0 mm | - | 1 W/m² | - |
| 1777685475 | 10.56° C | 37% | 1016.5 hPa | 0 mm | - | 2 W/m² | - |
| 1777685173 | 10.56° C | 38% | 1016.6 hPa | 0 mm | - | 3 W/m² | - |
| 1777684871 | 10.56° C | 37% | 1016.7 hPa | 0 mm | - | 4 W/m² | - |
| 1777684567 | 11.11° C | 36% | 1016.6 hPa | 0 mm | - | 6 W/m² | - |
| 1777684263 | 11.67° C | 35% | 1016.5 hPa | 0 mm | - | 9 W/m² | - |
* Rain latest hour (hover to see other rain measurements)
** Current wind speed in m/s (hover to see current wind gust speed)